DWI7105 MMSM-MDPC

Flight info

Callsign DWI7105
Flight time 3h 56m
Altitude 37000
Route NOXOS2H NOXOS UT106 ANADU UT155 ELURA UT17 MEDOS UT20 CZA UJ9 CZM UL577 TIDAN/N0456F390 UL577 PAP UA890 ETBOD UL577 CDO UM597 GABIM DCT BEREL BEREL1W
Aircraft B38M/M-SDE1FGHILORVWXY/HB1

Departure

Time 2026-04-30 18:49
Airport Felipe Ángeles International Airport (MMSM)

Arrival

Time 2026-04-30 22:45
Airport Punta Cana International Airport (MDPC)
Time Latitude Longitude Altitude Speed Heading
2026-04-30 18:22 19.73556 -99.02087 7380 ft 0 kts 320°
2026-04-30 18:32 19.73556 -99.02086 7380 ft 1 kts 320°
2026-04-30 18:33 19.73537 -99.02070 7379 ft 4 kts 320°
2026-04-30 18:33 19.73497 -99.02031 7380 ft 4 kts 318°
2026-04-30 18:33 19.73482 -99.02020 7379 ft 4 kts 24°
2026-04-30 18:34 19.73471 -99.02032 7379 ft 4 kts 49°
2026-04-30 18:34 19.73463 -99.02042 7379 ft 2 kts 49°
2026-04-30 18:37 19.73470 -99.02033 7379 ft 3 kts 49°
2026-04-30 18:37 19.73492 -99.02006 7379 ft 7 kts 50°
2026-04-30 18:37 19.73529 -99.01960 7379 ft 10 kts 49°
2026-04-30 18:37 19.73580 -99.01898 7379 ft 13 kts 49°
2026-04-30 18:38 19.73646 -99.01819 7379 ft 16 kts 48°
2026-04-30 18:38 19.73722 -99.01725 7379 ft 18 kts 50°
2026-04-30 18:38 19.73810 -99.01616 7379 ft 21 kts 49°
2026-04-30 18:38 19.73890 -99.01531 7379 ft 10 kts 22°
2026-04-30 18:39 19.73944 -99.01549 7379 ft 8 kts 318°
2026-04-30 18:39 19.73984 -99.01586 7379 ft 9 kts 319°
2026-04-30 18:39 19.74036 -99.01633 7379 ft 11 kts 320°
2026-04-30 18:39 19.74100 -99.01694 7379 ft 14 kts 317°
2026-04-30 18:40 19.74119 -99.01712 7379 ft 14 kts 317°
2026-04-30 18:40 19.74173 -99.01765 7379 ft 16 kts 316°
2026-04-30 18:40 19.74262 -99.01841 7379 ft 17 kts 320°
2026-04-30 18:40 19.74359 -99.01927 7379 ft 20 kts 319°
2026-04-30 18:41 19.74467 -99.02026 7379 ft 22 kts 319°
2026-04-30 18:41 19.74550 -99.02103 7379 ft 13 kts 319°
2026-04-30 18:41 19.74622 -99.02173 7379 ft 14 kts 313°
2026-04-30 18:41 19.74593 -99.02256 7378 ft 14 kts 227°
2026-04-30 18:42 19.74525 -99.02340 7379 ft 16 kts 229°
2026-04-30 18:42 19.74353 -99.02552 7379 ft 22 kts 229°
2026-04-30 18:42 19.74246 -99.02681 7380 ft 25 kts 229°
2026-04-30 18:45 19.73808 -99.03216 7379 ft 16 kts 229°
2026-04-30 18:45 19.73717 -99.03326 7379 ft 23 kts 229°
2026-04-30 18:45 19.73607 -99.03464 7379 ft 25 kts 229°
2026-04-30 18:46 19.73495 -99.03599 7380 ft 24 kts 228°
2026-04-30 18:46 19.73391 -99.03727 7379 ft 22 kts 230°
2026-04-30 18:46 19.73321 -99.03813 7379 ft 10 kts 229°
2026-04-30 18:46 19.73323 -99.03870 7379 ft 8 kts 310°
2026-04-30 18:47 19.73366 -99.03912 7379 ft 9 kts 320°
2026-04-30 18:47 19.73415 -99.03951 7378 ft 8 kts 345°
2026-04-30 18:47 19.73427 -99.03948 7379 ft 2 kts 41°
2026-04-30 18:47 19.73541 -99.03805 7379 ft 53 kts 49°
2026-04-30 18:48 19.73909 -99.03359 7376 ft 105 kts 49°
2026-04-30 18:48 19.74483 -99.02658 7379 ft 149 kts 50°
2026-04-30 18:48 19.75246 -99.01723 7379 ft 186 kts 49°
2026-04-30 18:48 19.76163 -99.00624 7532 ft 206 kts 46°
2026-04-30 18:49 19.77098 -98.99490 8394 ft 204 kts 47°
2026-04-30 18:49 19.78052 -98.98375 8878 ft 203 kts 49°
2026-04-30 18:49 19.78962 -98.97251 9483 ft 199 kts 52°
2026-04-30 18:49 19.79872 -98.96057 9686 ft 219 kts 51°
2026-04-30 18:50 19.80882 -98.94752 9860 ft 236 kts 50°
2026-04-30 18:50 19.81990 -98.93377 9882 ft 260 kts 50°
2026-04-30 18:50 19.82966 -98.91745 10179 ft 269 kts 71°
2026-04-30 18:50 19.83242 -98.89730 10413 ft 284 kts 95°
2026-04-30 18:51 19.82677 -98.87670 10602 ft 300 kts 118°
2026-04-30 18:51 19.81533 -98.85763 10771 ft 315 kts 116°
2026-04-30 18:51 19.80891 -98.83498 10958 ft 327 kts 97°
2026-04-30 18:51 19.80587 -98.81055 11142 ft 340 kts 98°
2026-04-30 18:52 19.80254 -98.78552 11647 ft 341 kts 97°
2026-04-30 18:52 19.79922 -98.76052 12180 ft 343 kts 97°
2026-04-30 18:52 19.79586 -98.73527 12706 ft 346 kts 98°
2026-04-30 18:52 19.79248 -98.70983 13279 ft 349 kts 98°
2026-04-30 18:53 19.78912 -98.68449 13641 ft 353 kts 97°
2026-04-30 18:53 19.78548 -98.65836 13646 ft 354 kts 102°
2026-04-30 18:53 19.77608 -98.63433 14261 ft 354 kts 122°
2026-04-30 18:53 19.76190 -98.61317 14847 ft 358 kts 125°
2026-04-30 18:54 19.74701 -98.59173 15388 ft 363 kts 126°
2026-04-30 18:54 19.73185 -98.57019 15981 ft 366 kts 126°
2026-04-30 18:54 19.71642 -98.54849 16508 ft 370 kts 126°
2026-04-30 18:54 19.70083 -98.52668 17057 ft 373 kts 126°
2026-04-30 18:55 19.68500 -98.50459 17587 ft 377 kts 126°
2026-04-30 18:55 19.65294 -98.45995 18557 ft 384 kts 126°
2026-04-30 18:55 19.63669 -98.43734 19022 ft 386 kts 126°
2026-04-30 18:56 19.61519 -98.38618 19856 ft 387 kts 95°
2026-04-30 18:56 19.61324 -98.35762 20234 ft 391 kts 92°
2026-04-30 18:56 19.61182 -98.32867 20652 ft 393 kts 92°
2026-04-30 18:57 19.60972 -98.27019 21456 ft 400 kts 91°
2026-04-30 18:57 19.60884 -98.24052 21860 ft 403 kts 91°
2026-04-30 18:57 19.60799 -98.21058 22266 ft 407 kts 91°
2026-04-30 18:58 19.60632 -98.15042 23058 ft 413 kts 91°
2026-04-30 18:58 19.60547 -98.11998 23455 ft 416 kts 91°
2026-04-30 18:58 19.60461 -98.08893 23779 ft 420 kts 91°
2026-04-30 18:59 19.60313 -98.02656 24483 ft 425 kts 86°
2026-04-30 19:00 19.62879 -97.93695 25478 ft 431 kts 68°
2026-04-30 19:00 19.63937 -97.90721 25885 ft 433 kts 68°
2026-04-30 19:00 19.66119 -97.84696 26563 ft 439 kts 68°
2026-04-30 19:01 19.68336 -97.78616 27221 ft 445 kts 67°
2026-04-30 19:01 19.69454 -97.75544 27567 ft 447 kts 67°
2026-04-30 19:02 19.71708 -97.69355 28236 ft 452 kts 66°
2026-04-30 19:02 19.73986 -97.63089 28915 ft 457 kts 67°
2026-04-30 19:03 19.76286 -97.56756 29538 ft 462 kts 67°
2026-04-30 19:03 19.78590 -97.50399 30162 ft 467 kts 67°
2026-04-30 19:04 19.80933 -97.43928 30713 ft 471 kts 67°
2026-04-30 19:04 19.83297 -97.37396 31214 ft 475 kts 67°
2026-04-30 19:05 19.85673 -97.30821 31733 ft 479 kts 67°
2026-04-30 19:05 19.88069 -97.24180 32293 ft 481 kts 67°
2026-04-30 19:06 19.90454 -97.17563 33061 ft 479 kts 67°
2026-04-30 19:06 19.91628 -97.14304 33418 ft 478 kts 68°
2026-04-30 19:06 19.93388 -97.09411 33953 ft 476 kts 68°
2026-04-30 19:07 19.95752 -97.02836 34551 ft 475 kts 67°
2026-04-30 19:07 19.96932 -96.99550 34842 ft 475 kts 67°
2026-04-30 19:08 19.99283 -96.92993 35408 ft 474 kts 67°
2026-04-30 19:08 20.01627 -96.86451 35951 ft 473 kts 67°
2026-04-30 19:08 20.02794 -96.83188 36216 ft 472 kts 67°
2026-04-30 19:09 20.05128 -96.76660 36718 ft 471 kts 67°
2026-04-30 19:09 20.07436 -96.70197 36795 ft 469 kts 67°
2026-04-30 19:10 20.12068 -96.57195 36796 ft 469 kts 67°
2026-04-30 19:11 20.15520 -96.47485 36797 ft 469 kts 67°
2026-04-30 19:12 20.17842 -96.40943 36796 ft 469 kts 67°
2026-04-30 19:12 20.20133 -96.34480 36796 ft 469 kts 66°
2026-04-30 19:13 20.24736 -96.21468 36798 ft 469 kts 67°
2026-04-30 19:14 20.27034 -96.14957 36803 ft 469 kts 67°
2026-04-30 19:14 20.29332 -96.08442 36802 ft 469 kts 66°
2026-04-30 19:15 20.31608 -96.01932 36800 ft 470 kts 70°
2026-04-30 19:15 20.33286 -95.92791 36805 ft 473 kts 77°
2026-04-30 19:16 20.34656 -95.84762 36809 ft 473 kts 77°
2026-04-30 19:17 20.36211 -95.75589 36819 ft 473 kts 77°
2026-04-30 19:17 20.37960 -95.65239 36817 ft 473 kts 77°
2026-04-30 19:18 20.39705 -95.54870 36816 ft 473 kts 77°
2026-04-30 19:19 20.40863 -95.47970 36815 ft 473 kts 77°
2026-04-30 19:19 20.42597 -95.37603 36820 ft 473 kts 77°
2026-04-30 19:20 20.43744 -95.30728 36823 ft 473 kts 77°
2026-04-30 19:21 20.45469 -95.20353 36822 ft 473 kts 77°
2026-04-30 19:22 20.47758 -95.06526 36817 ft 473 kts 77°
2026-04-30 19:23 20.51168 -94.85821 36818 ft 473 kts 77°
2026-04-30 19:24 20.52868 -94.75423 36819 ft 473 kts 77°
2026-04-30 19:25 20.55682 -94.58116 36827 ft 473 kts 77°
2026-04-30 19:26 20.57912 -94.44319 36832 ft 473 kts 77°
2026-04-30 19:27 20.59586 -94.33920 36833 ft 473 kts 77°
2026-04-30 19:28 20.61252 -94.23525 36827 ft 473 kts 77°
2026-04-30 19:29 20.63457 -94.09704 36833 ft 473 kts 77°
2026-04-30 19:30 20.65656 -93.95844 36830 ft 473 kts 77°
2026-04-30 19:31 20.67841 -93.82006 36829 ft 473 kts 77°
2026-04-30 19:31 20.69473 -93.71619 36831 ft 473 kts 77°
2026-04-30 19:32 20.70558 -93.64689 36829 ft 473 kts 77°
2026-04-30 19:32 20.71641 -93.57756 36841 ft 473 kts 77°
2026-04-30 19:33 20.72722 -93.50819 36842 ft 473 kts 77°
2026-04-30 19:33 20.73802 -93.43868 36840 ft 473 kts 78°
2026-04-30 19:34 20.74272 -93.36858 36847 ft 477 kts 88°
2026-04-30 19:35 20.74215 -93.26258 36837 ft 477 kts 88°
2026-04-30 19:35 20.74167 -93.19171 36840 ft 477 kts 88°
2026-04-30 19:36 20.74116 -93.12070 36840 ft 477 kts 88°
2026-04-30 19:36 20.74033 -93.01432 36843 ft 477 kts 88°
2026-04-30 19:37 20.73974 -92.94385 36843 ft 477 kts 88°
2026-04-30 19:37 20.73912 -92.87293 36842 ft 477 kts 88°
2026-04-30 19:38 20.73848 -92.80211 36844 ft 477 kts 88°
2026-04-30 19:38 20.73781 -92.73122 36845 ft 477 kts 88°
2026-04-30 19:39 20.73710 -92.66041 36849 ft 477 kts 88°
2026-04-30 19:39 20.73637 -92.58998 36848 ft 477 kts 88°
2026-04-30 19:40 20.73561 -92.51913 36849 ft 477 kts 88°
2026-04-30 19:40 20.73482 -92.44826 36849 ft 476 kts 88°
2026-04-30 19:41 20.73400 -92.37735 36852 ft 476 kts 88°
2026-04-30 19:41 20.73315 -92.30662 36852 ft 476 kts 88°
2026-04-30 19:42 20.73227 -92.23574 36852 ft 476 kts 88°
2026-04-30 19:42 20.73137 -92.16543 36852 ft 476 kts 88°
2026-04-30 19:43 20.73043 -92.09455 36852 ft 476 kts 88°
2026-04-30 19:44 20.72898 -91.98827 36848 ft 476 kts 88°
2026-04-30 19:44 20.72797 -91.91757 36852 ft 476 kts 88°
2026-04-30 19:45 20.72694 -91.84676 36854 ft 476 kts 88°
2026-04-30 19:45 20.72587 -91.77593 36853 ft 476 kts 88°
2026-04-30 19:46 20.72479 -91.70563 36853 ft 476 kts 88°
2026-04-30 19:46 20.72366 -91.63480 36854 ft 476 kts 88°
2026-04-30 19:47 20.72251 -91.56413 36856 ft 476 kts 88°
2026-04-30 19:47 20.72133 -91.49338 36854 ft 476 kts 88°
2026-04-30 19:48 20.72012 -91.42256 36854 ft 476 kts 88°
2026-04-30 19:48 20.71889 -91.35218 36855 ft 476 kts 88°
2026-04-30 19:49 20.71762 -91.28151 36854 ft 476 kts 88°
2026-04-30 19:49 20.71567 -91.17550 36852 ft 476 kts 88°
2026-04-30 19:50 20.71433 -91.10477 36852 ft 476 kts 88°
2026-04-30 19:50 20.71297 -91.03424 36845 ft 475 kts 88°
2026-04-30 19:51 20.71158 -90.96394 36846 ft 475 kts 88°
2026-04-30 19:51 20.71016 -90.89337 36847 ft 475 kts 88°
2026-04-30 19:52 20.70871 -90.82278 36848 ft 475 kts 88°
2026-04-30 19:52 20.70724 -90.75217 36845 ft 475 kts 88°
2026-04-30 19:53 20.70574 -90.68160 36848 ft 475 kts 88°
2026-04-30 19:53 20.70422 -90.61147 36845 ft 474 kts 88°
2026-04-30 19:54 20.70263 -90.54115 36846 ft 474 kts 88°
2026-04-30 19:54 20.70104 -90.47079 36847 ft 474 kts 88°
2026-04-30 19:55 20.69941 -90.40037 36848 ft 473 kts 88°
2026-04-30 19:55 20.69776 -90.33013 36849 ft 473 kts 88°
2026-04-30 19:56 20.69609 -90.25987 36846 ft 473 kts 88°
2026-04-30 19:56 20.69439 -90.18964 36849 ft 473 kts 88°
2026-04-30 19:57 20.69266 -90.11957 36847 ft 472 kts 88°
2026-04-30 19:57 20.69092 -90.04981 36853 ft 472 kts 88°
2026-04-30 19:58 20.68914 -89.97986 36859 ft 471 kts 88°
2026-04-30 19:58 20.68732 -89.90980 36865 ft 471 kts 88°
2026-04-30 19:59 20.68548 -89.83985 36867 ft 471 kts 88°
2026-04-30 20:00 20.68268 -89.73503 36869 ft 470 kts 88°
2026-04-30 20:00 20.68078 -89.66558 36870 ft 470 kts 88°
2026-04-30 20:01 20.67788 -89.56089 36867 ft 470 kts 88°
2026-04-30 20:01 20.67590 -89.49109 36866 ft 470 kts 88°
2026-04-30 20:02 20.67289 -89.38643 36865 ft 469 kts 88°
2026-04-30 20:03 20.67017 -89.29377 36865 ft 469 kts 88°
2026-04-30 20:03 20.66775 -89.21272 36863 ft 469 kts 88°
2026-04-30 20:04 20.66599 -89.15441 36864 ft 469 kts 88°
2026-04-30 20:05 20.66280 -89.05061 36864 ft 469 kts 88°
2026-04-30 20:05 20.65953 -88.94620 36867 ft 469 kts 89°
2026-04-30 20:06 20.65731 -88.87660 36863 ft 469 kts 89°
2026-04-30 20:06 20.65507 -88.80707 36862 ft 469 kts 89°
2026-04-30 20:07 20.65279 -88.73741 36863 ft 469 kts 89°
2026-04-30 20:08 20.64933 -88.63291 36862 ft 469 kts 89°
2026-04-30 20:08 20.64702 -88.56377 36861 ft 469 kts 89°
2026-04-30 20:09 20.64466 -88.49405 36864 ft 470 kts 89°
2026-04-30 20:09 20.63741 -88.38953 36859 ft 471 kts 92°
2026-04-30 20:10 20.62870 -88.28479 36863 ft 472 kts 92°
2026-04-30 20:11 20.62001 -88.17999 36866 ft 472 kts 92°
2026-04-30 20:11 20.61421 -88.11061 36870 ft 472 kts 92°
2026-04-30 20:12 20.60541 -88.00587 36878 ft 472 kts 92°
2026-04-30 20:13 20.59942 -87.93610 36881 ft 472 kts 92°
2026-04-30 20:13 20.59336 -87.86626 36882 ft 472 kts 92°
2026-04-30 20:14 20.58731 -87.79694 36888 ft 472 kts 92°
2026-04-30 20:14 20.58116 -87.72715 36890 ft 472 kts 91°
2026-04-30 20:15 20.57499 -87.65744 36893 ft 472 kts 91°
2026-04-30 20:15 20.56879 -87.58777 36897 ft 471 kts 91°
2026-04-30 20:16 20.56257 -87.51812 36903 ft 471 kts 91°
2026-04-30 20:16 20.55632 -87.44853 36907 ft 471 kts 91°
2026-04-30 20:17 20.55004 -87.37883 36909 ft 471 kts 91°
2026-04-30 20:17 20.54377 -87.30924 36911 ft 471 kts 91°
2026-04-30 20:18 20.53752 -87.24011 36912 ft 471 kts 91°
2026-04-30 20:18 20.53120 -87.17052 36915 ft 471 kts 91°
2026-04-30 20:19 20.52484 -87.10076 36917 ft 471 kts 91°
2026-04-30 20:19 20.51847 -87.03130 36916 ft 471 kts 90°
2026-04-30 20:20 20.51205 -86.96160 36916 ft 471 kts 90°
2026-04-30 20:20 20.50343 -86.89261 36920 ft 474 kts 97°
2026-04-30 20:21 20.48998 -86.82364 36917 ft 475 kts 97°
2026-04-30 20:21 20.47630 -86.75459 36918 ft 475 kts 97°
2026-04-30 20:22 20.46271 -86.68620 36915 ft 475 kts 97°
2026-04-30 20:22 20.44897 -86.61719 36912 ft 475 kts 96°
2026-04-30 20:23 20.43523 -86.54836 36909 ft 475 kts 96°
2026-04-30 20:23 20.42144 -86.47941 36908 ft 474 kts 96°
2026-04-30 20:24 20.40764 -86.41063 36909 ft 474 kts 97°
2026-04-30 20:24 20.39383 -86.34189 36908 ft 474 kts 96°
2026-04-30 20:25 20.37308 -86.23890 36905 ft 473 kts 96°
2026-04-30 20:26 20.35239 -86.13651 36901 ft 473 kts 97°
2026-04-30 20:26 20.33152 -86.03357 36902 ft 473 kts 97°
2026-04-30 20:27 20.30375 -85.89713 36903 ft 472 kts 97°
2026-04-30 20:28 20.27584 -85.76056 36899 ft 471 kts 97°
2026-04-30 20:30 20.24082 -85.58996 36905 ft 471 kts 97°
2026-04-30 20:31 20.19872 -85.38605 36901 ft 470 kts 97°
2026-04-30 20:32 20.16255 -85.21654 36904 ft 471 kts 97°
2026-04-30 20:33 20.14063 -85.11472 36908 ft 470 kts 97°
2026-04-30 20:34 20.11865 -85.01290 36905 ft 470 kts 97°
2026-04-30 20:35 20.09663 -84.91118 36906 ft 470 kts 97°
2026-04-30 20:35 20.07452 -84.80942 36909 ft 470 kts 97°
2026-04-30 20:36 20.05977 -84.74164 36906 ft 470 kts 97°
2026-04-30 20:37 20.03771 -84.64054 36904 ft 470 kts 98°
2026-04-30 20:37 20.02290 -84.57284 36908 ft 469 kts 98°
2026-04-30 20:38 20.00808 -84.50521 36908 ft 469 kts 98°
2026-04-30 20:38 19.99321 -84.43752 36906 ft 469 kts 98°
2026-04-30 20:39 19.97092 -84.33624 36908 ft 469 kts 98°
2026-04-30 20:40 19.94866 -84.23539 36908 ft 469 kts 98°
2026-04-30 20:40 19.93375 -84.16799 36906 ft 468 kts 98°
2026-04-30 20:41 19.91134 -84.06693 36909 ft 468 kts 98°
2026-04-30 20:41 19.89634 -83.99947 36905 ft 468 kts 99°
2026-04-30 20:42 19.88133 -83.93210 36906 ft 468 kts 99°
2026-04-30 20:43 19.85887 -83.83150 36908 ft 469 kts 99°
2026-04-30 20:43 19.84379 -83.76408 36907 ft 469 kts 99°
2026-04-30 20:44 19.82110 -83.66295 36908 ft 469 kts 99°
2026-04-30 20:45 19.79075 -83.52804 36908 ft 469 kts 99°
2026-04-30 20:45 19.77555 -83.46068 36908 ft 470 kts 99°
2026-04-30 20:46 19.74511 -83.32616 36908 ft 470 kts 100°
2026-04-30 20:47 19.72209 -83.22475 36908 ft 471 kts 100°
2026-04-30 20:48 19.69909 -83.12370 36907 ft 471 kts 100°
2026-04-30 20:48 19.68370 -83.05627 36905 ft 471 kts 101°
2026-04-30 20:49 19.66826 -82.98870 36909 ft 471 kts 101°
2026-04-30 20:50 19.64506 -82.88744 36907 ft 471 kts 101°
2026-04-30 20:50 19.62965 -82.82031 36901 ft 471 kts 101°
2026-04-30 20:51 19.61408 -82.75265 36903 ft 471 kts 101°
2026-04-30 20:51 19.59071 -82.65127 36902 ft 472 kts 101°
2026-04-30 20:52 19.57771 -82.59500 36903 ft 472 kts 101°
2026-04-30 20:53 19.55434 -82.49406 36914 ft 472 kts 101°
2026-04-30 20:53 19.53860 -82.42624 36904 ft 472 kts 101°
2026-04-30 20:54 19.51501 -82.32477 36910 ft 473 kts 101°
2026-04-30 20:55 19.49133 -82.22317 36910 ft 474 kts 102°
2026-04-30 20:55 19.47547 -82.15527 36916 ft 474 kts 102°
2026-04-30 20:56 19.45186 -82.05386 36906 ft 474 kts 99°
2026-04-30 20:57 19.43637 -81.95039 36905 ft 474 kts 96°
2026-04-30 20:57 19.42653 -81.88133 36914 ft 474 kts 96°
2026-04-30 20:58 19.41169 -81.77739 36913 ft 475 kts 96°
2026-04-30 20:58 19.40183 -81.70856 36916 ft 476 kts 96°
2026-04-30 20:59 19.38688 -81.60447 36917 ft 477 kts 96°
2026-04-30 21:00 19.36678 -81.46532 36918 ft 478 kts 97°
2026-04-30 21:01 19.35171 -81.36151 36910 ft 478 kts 97°
2026-04-30 21:02 19.33651 -81.25711 36914 ft 478 kts 97°
2026-04-30 21:02 19.32633 -81.18750 36913 ft 479 kts 97°
2026-04-30 21:03 19.31611 -81.11777 36911 ft 479 kts 97°
2026-04-30 21:03 19.30585 -81.04803 36912 ft 479 kts 97°
2026-04-30 21:04 19.29557 -80.97829 36908 ft 479 kts 97°
2026-04-30 21:04 19.28009 -80.87354 36908 ft 480 kts 97°
2026-04-30 21:05 19.26974 -80.80381 36915 ft 480 kts 98°
2026-04-30 21:05 19.25932 -80.73378 36910 ft 481 kts 98°
2026-04-30 21:06 19.24893 -80.66416 36910 ft 481 kts 98°
2026-04-30 21:06 19.23847 -80.59425 36912 ft 481 kts 98°
2026-04-30 21:07 19.22798 -80.52430 36910 ft 481 kts 98°
2026-04-30 21:07 19.21752 -80.45474 36910 ft 482 kts 98°
2026-04-30 21:08 19.20695 -80.38465 36911 ft 482 kts 98°
2026-04-30 21:08 19.19634 -80.31441 36907 ft 483 kts 98°
2026-04-30 21:09 19.18568 -80.24412 36909 ft 483 kts 98°
2026-04-30 21:09 19.17501 -80.17390 36910 ft 484 kts 98°
2026-04-30 21:10 19.16433 -80.10381 36909 ft 485 kts 98°
2026-04-30 21:10 19.15356 -80.03330 36914 ft 486 kts 99°
2026-04-30 21:11 19.14273 -79.96260 36912 ft 486 kts 99°
2026-04-30 21:11 19.13195 -79.89241 36909 ft 487 kts 99°
2026-04-30 21:12 19.12105 -79.82164 36909 ft 488 kts 99°
2026-04-30 21:12 19.11010 -79.75071 36910 ft 489 kts 99°
2026-04-30 21:13 19.09911 -79.67973 36909 ft 490 kts 99°
2026-04-30 21:13 19.08806 -79.60851 36906 ft 490 kts 99°
2026-04-30 21:14 19.07697 -79.53726 36908 ft 492 kts 99°
2026-04-30 21:14 19.06584 -79.46592 36908 ft 492 kts 99°
2026-04-30 21:15 19.05465 -79.39436 36908 ft 493 kts 99°
2026-04-30 21:15 19.04343 -79.32276 36907 ft 494 kts 99°
2026-04-30 21:16 19.03224 -79.25156 36906 ft 495 kts 100°
2026-04-30 21:16 19.02089 -79.17961 36910 ft 496 kts 100°
2026-04-30 21:17 19.00950 -79.10757 36910 ft 496 kts 100°
2026-04-30 21:17 18.99809 -79.03553 36906 ft 497 kts 100°
2026-04-30 21:18 18.98670 -78.96382 36907 ft 498 kts 100°
2026-04-30 21:18 18.97520 -78.89162 36904 ft 498 kts 100°
2026-04-30 21:19 18.96366 -78.81936 36905 ft 499 kts 100°
2026-04-30 21:19 18.95208 -78.74699 36908 ft 500 kts 100°
2026-04-30 21:20 18.94048 -78.67469 36905 ft 501 kts 100°
2026-04-30 21:20 18.92883 -78.60229 36905 ft 501 kts 100°
2026-04-30 21:21 18.91711 -78.52963 36906 ft 502 kts 101°
2026-04-30 21:22 18.89946 -78.42054 36903 ft 502 kts 101°
2026-04-30 21:23 18.87585 -78.27530 36903 ft 503 kts 101°
2026-04-30 21:23 18.85798 -78.16580 36902 ft 504 kts 101°
2026-04-30 21:24 18.84602 -78.09280 36904 ft 504 kts 101°
2026-04-30 21:24 18.83402 -78.01969 36903 ft 505 kts 101°
2026-04-30 21:25 18.81605 -77.91058 36903 ft 505 kts 101°
2026-04-30 21:26 18.79789 -77.80078 36904 ft 506 kts 101°
2026-04-30 21:27 18.77969 -77.69109 36900 ft 506 kts 101°
2026-04-30 21:27 18.76757 -77.61824 36904 ft 506 kts 101°
2026-04-30 21:28 18.74923 -77.50841 36910 ft 506 kts 101°
2026-04-30 21:29 18.73084 -77.39868 36909 ft 506 kts 101°
2026-04-30 21:30 18.70002 -77.21567 36907 ft 506 kts 102°
2026-04-30 21:31 18.66909 -77.03315 36908 ft 506 kts 102°
2026-04-30 21:32 18.65043 -76.92354 36909 ft 506 kts 102°
2026-04-30 21:32 18.63795 -76.85046 36908 ft 506 kts 102°
2026-04-30 21:33 18.61919 -76.74093 36911 ft 506 kts 102°
2026-04-30 21:34 18.60664 -76.66793 36903 ft 506 kts 102°
2026-04-30 21:34 18.58778 -76.55845 36903 ft 506 kts 102°
2026-04-30 21:35 18.57517 -76.48550 36910 ft 505 kts 102°
2026-04-30 21:35 18.56263 -76.41310 36914 ft 505 kts 102°
2026-04-30 21:36 18.54999 -76.34025 36915 ft 505 kts 102°
2026-04-30 21:37 18.52464 -76.19465 36912 ft 505 kts 102°
2026-04-30 21:37 18.51186 -76.12177 36914 ft 504 kts 102°
2026-04-30 21:38 18.49919 -76.04963 36915 ft 504 kts 102°
2026-04-30 21:38 18.48640 -75.97686 36912 ft 504 kts 102°
2026-04-30 21:39 18.47577 -75.91652 36906 ft 504 kts 102°
2026-04-30 21:39 18.46295 -75.84397 36907 ft 504 kts 102°
2026-04-30 21:40 18.45009 -75.77132 36911 ft 504 kts 102°
2026-04-30 21:40 18.43724 -75.69885 36914 ft 504 kts 102°
2026-04-30 21:41 18.42433 -75.62625 36911 ft 504 kts 102°
2026-04-30 21:41 18.41141 -75.55374 36906 ft 503 kts 102°
2026-04-30 21:42 18.39852 -75.48162 36917 ft 503 kts 102°
2026-04-30 21:42 18.38557 -75.40929 36914 ft 503 kts 102°
2026-04-30 21:43 18.37258 -75.33690 36918 ft 503 kts 102°
2026-04-30 21:43 18.35954 -75.26436 36913 ft 503 kts 102°
2026-04-30 21:44 18.34651 -75.19209 36912 ft 503 kts 102°
2026-04-30 21:44 18.33341 -75.11957 36913 ft 503 kts 102°
2026-04-30 21:45 18.32032 -75.04725 36910 ft 503 kts 102°
2026-04-30 21:45 18.30728 -74.97542 36919 ft 503 kts 102°
2026-04-30 21:46 18.29414 -74.90318 36917 ft 503 kts 103°
2026-04-30 21:46 18.28095 -74.83083 36908 ft 503 kts 103°
2026-04-30 21:47 18.26778 -74.75875 36918 ft 502 kts 103°
2026-04-30 21:47 18.25465 -74.68638 36914 ft 503 kts 100°
2026-04-30 21:48 18.25323 -74.64974 36905 ft 503 kts 84°
2026-04-30 21:48 18.25782 -74.61307 36892 ft 505 kts 83°
2026-04-30 21:48 18.26757 -74.53985 36922 ft 506 kts 82°
2026-04-30 21:49 18.27792 -74.46673 36921 ft 506 kts 82°
2026-04-30 21:49 18.28740 -74.40019 36927 ft 506 kts 81°
2026-04-30 21:50 18.29783 -74.32679 36931 ft 506 kts 82°
2026-04-30 21:50 18.30820 -74.25361 36935 ft 506 kts 82°
2026-04-30 21:51 18.31850 -74.18069 36937 ft 506 kts 82°
2026-04-30 21:51 18.32882 -74.10742 36928 ft 506 kts 82°
2026-04-30 21:52 18.33915 -74.03394 36945 ft 506 kts 82°
2026-04-30 21:52 18.34942 -73.96067 36946 ft 507 kts 82°
2026-04-30 21:53 18.35966 -73.88726 36958 ft 507 kts 82°
2026-04-30 21:53 18.36986 -73.81415 36943 ft 507 kts 82°
2026-04-30 21:54 18.38006 -73.74074 36942 ft 507 kts 82°
2026-04-30 21:54 18.39025 -73.66723 36932 ft 507 kts 82°
2026-04-30 21:55 18.40039 -73.59376 36933 ft 507 kts 82°
2026-04-30 21:55 18.41051 -73.52026 36929 ft 507 kts 82°
2026-04-30 21:56 18.42054 -73.44723 36925 ft 507 kts 82°
2026-04-30 21:56 18.43062 -73.37360 36928 ft 508 kts 82°
2026-04-30 21:57 18.44066 -73.30002 36929 ft 507 kts 82°
2026-04-30 21:57 18.45068 -73.22646 36917 ft 507 kts 82°
2026-04-30 21:58 18.46068 -73.15275 36909 ft 507 kts 82°
2026-04-30 21:58 18.47064 -73.07915 36930 ft 507 kts 82°
2026-04-30 21:59 18.48058 -73.00551 36928 ft 507 kts 82°
2026-04-30 22:00 18.49558 -72.89513 36917 ft 507 kts 82°
2026-04-30 22:00 18.51059 -72.78660 36910 ft 507 kts 82°
2026-04-30 22:01 18.51869 -72.72785 36905 ft 507 kts 82°
2026-04-30 22:01 18.52883 -72.65416 36899 ft 507 kts 82°
2026-04-30 22:02 18.53890 -72.58068 36896 ft 507 kts 82°
2026-04-30 22:02 18.54897 -72.50698 36899 ft 507 kts 82°
2026-04-30 22:03 18.55899 -72.43345 36895 ft 508 kts 82°
2026-04-30 22:03 18.56895 -72.36014 36898 ft 508 kts 82°
2026-04-30 22:04 18.57340 -72.28625 36897 ft 504 kts 100°
2026-04-30 22:05 18.55843 -72.17641 36896 ft 507 kts 100°
2026-04-30 22:05 18.54855 -72.10671 36895 ft 507 kts 100°
2026-04-30 22:06 18.53814 -72.03357 36896 ft 507 kts 100°
2026-04-30 22:06 18.52236 -71.92312 36905 ft 508 kts 101°
2026-04-30 22:07 18.51574 -71.84927 36914 ft 510 kts 94°
2026-04-30 22:07 18.51302 -71.77475 36909 ft 510 kts 93°
2026-04-30 22:08 18.51045 -71.69980 36905 ft 511 kts 94°
2026-04-30 22:08 18.50786 -71.62480 36904 ft 511 kts 94°
2026-04-30 22:09 18.50525 -71.55020 36903 ft 512 kts 94°
2026-04-30 22:09 18.50260 -71.47520 36901 ft 513 kts 94°
2026-04-30 22:10 18.49990 -71.40004 36896 ft 513 kts 94°
2026-04-30 22:10 18.49718 -71.32461 36897 ft 514 kts 94°
2026-04-30 22:11 18.49305 -71.21188 36893 ft 515 kts 94°
2026-04-30 22:12 18.49024 -71.13627 36892 ft 516 kts 94°
2026-04-30 22:12 18.48742 -71.06118 36896 ft 516 kts 94°
2026-04-30 22:13 18.48455 -70.98549 36903 ft 516 kts 94°
2026-04-30 22:13 18.48165 -70.90997 36906 ft 517 kts 94°
2026-04-30 22:14 18.47872 -70.83413 36923 ft 517 kts 94°
2026-04-30 22:14 18.47599 -70.76426 36934 ft 517 kts 94°
2026-04-30 22:15 18.47350 -70.70133 36935 ft 517 kts 94°
2026-04-30 22:15 18.47034 -70.62203 36936 ft 518 kts 94°
2026-04-30 22:15 18.46881 -70.58374 36723 ft 517 kts 94°
2026-04-30 22:16 18.46728 -70.54594 36444 ft 517 kts 94°
2026-04-30 22:16 18.46576 -70.50828 36026 ft 511 kts 94°
2026-04-30 22:17 18.46107 -70.39383 33001 ft 535 kts 94°
2026-04-30 22:17 18.45944 -70.35424 32000 ft 540 kts 94°
2026-04-30 22:17 18.45622 -70.27695 30827 ft 531 kts 94°
2026-04-30 22:18 18.45462 -70.23865 30285 ft 527 kts 94°
2026-04-30 22:18 18.45140 -70.16158 28818 ft 523 kts 94°
2026-04-30 22:19 18.44886 -70.08549 27564 ft 514 kts 93°
2026-04-30 22:19 18.44757 -70.04797 26951 ft 509 kts 93°
2026-04-30 22:19 18.44502 -69.97407 25703 ft 501 kts 94°
2026-04-30 22:20 18.44375 -69.93748 25080 ft 498 kts 94°
2026-04-30 22:20 18.44122 -69.86511 23845 ft 490 kts 94°
2026-04-30 22:20 18.43995 -69.82928 23182 ft 487 kts 94°
2026-04-30 22:21 18.43872 -69.79424 22511 ft 482 kts 94°
2026-04-30 22:21 18.43746 -69.75912 21901 ft 475 kts 94°
2026-04-30 22:21 18.43622 -69.72458 21311 ft 469 kts 94°
2026-04-30 22:21 18.43499 -69.69037 20714 ft 464 kts 94°
2026-04-30 22:22 18.43508 -69.65652 20044 ft 461 kts 86°
2026-04-30 22:22 18.43788 -69.62305 19474 ft 456 kts 86°
2026-04-30 22:22 18.44059 -69.58995 18929 ft 450 kts 86°
2026-04-30 22:22 18.44327 -69.55754 18386 ft 438 kts 85°
2026-04-30 22:23 18.44587 -69.52597 17773 ft 427 kts 85°
2026-04-30 22:23 18.44808 -69.49904 17276 ft 416 kts 85°
2026-04-30 22:23 18.45053 -69.46913 16738 ft 404 kts 85°
2026-04-30 22:23 18.45258 -69.44410 16292 ft 394 kts 85°
2026-04-30 22:24 18.45493 -69.41548 15786 ft 385 kts 85°
2026-04-30 22:24 18.45722 -69.38753 15268 ft 380 kts 85°
2026-04-30 22:24 18.45947 -69.35992 14769 ft 381 kts 85°
2026-04-30 22:24 18.46173 -69.33210 14299 ft 380 kts 85°
2026-04-30 22:25 18.46399 -69.30435 13824 ft 380 kts 85°
2026-04-30 22:25 18.46624 -69.27666 13253 ft 378 kts 85°
2026-04-30 22:25 18.46771 -69.25845 12894 ft 376 kts 85°
2026-04-30 22:25 18.46993 -69.23100 12378 ft 373 kts 85°
2026-04-30 22:26 18.47428 -69.17706 11373 ft 366 kts 85°
2026-04-30 22:26 18.47642 -69.15054 11044 ft 358 kts 85°
2026-04-30 22:26 18.47848 -69.12488 10854 ft 345 kts 85°
2026-04-30 22:27 18.48047 -69.10009 10659 ft 334 kts 85°
2026-04-30 22:27 18.48239 -69.07605 10466 ft 324 kts 85°
2026-04-30 22:27 18.48605 -69.03027 10097 ft 304 kts 85°
2026-04-30 22:28 18.48935 -68.98885 9355 ft 301 kts 85°
2026-04-30 22:28 18.49108 -68.96700 8954 ft 300 kts 85°
2026-04-30 22:29 18.49277 -68.94575 8589 ft 298 kts 85°
2026-04-30 22:32 18.49760 -68.88474 7543 ft 292 kts 85°
2026-04-30 22:32 18.50094 -68.84242 6815 ft 288 kts 85°
2026-04-30 22:33 18.50584 -68.77999 5711 ft 282 kts 85°
2026-04-30 22:33 18.50904 -68.73911 4986 ft 277 kts 85°
2026-04-30 22:34 18.51237 -68.69659 3758 ft 291 kts 85°
2026-04-30 22:38 18.51250 -68.69483 3708 ft 291 kts 85°
2026-04-30 22:39 18.51417 -68.67352 3263 ft 290 kts 85°
2026-04-30 22:39 18.51881 -68.61385 2951 ft 244 kts 85°
2026-04-30 22:40 18.52240 -68.56754 2964 ft 185 kts 85°
2026-04-30 22:41 18.53020 -68.52801 2625 ft 171 kts 73°
2026-04-30 22:41 18.53677 -68.50482 2261 ft 163 kts 73°
2026-04-30 22:42 18.54900 -68.46119 1669 ft 146 kts 73°
2026-04-30 22:43 18.55456 -68.44080 1287 ft 144 kts 73°
2026-04-30 22:43 18.56010 -68.42051 897 ft 144 kts 72°
2026-04-30 22:44 18.56549 -68.40052 424 ft 142 kts 72°
2026-04-30 22:45 18.57523 -68.36511 51 ft 69 kts 73°
2026-04-30 22:45 18.57560 -68.35923 52 ft 27 kts 115°
2026-04-30 22:46 18.57214 -68.35823 53 ft 25 kts 176°
2026-04-30 22:47 18.56950 -68.36095 47 ft 12 kts 265°
2026-04-30 22:47 18.56930 -68.36316 53 ft 18 kts 264°
2026-04-30 22:48 18.56909 -68.36566 53 ft 17 kts 264°
2026-04-30 22:49 18.56830 -68.36756 52 ft 6 kts 176°
2026-04-30 22:49 18.56749 -68.36747 51 ft 8 kts 175°
2026-04-30 22:50 18.56513 -68.36858 53 ft 9 kts 263°
2026-04-30 22:51 18.56505 -68.36977 47 ft 6 kts 259°
2026-04-30 22:51 18.56472 -68.37013 53 ft 2 kts 183°
2026-04-30 22:52 18.56441 -68.37005 48 ft 7 kts 148°
2026-04-30 22:52 18.56427 -68.36950 53 ft 4 kts 73°
2026-04-30 22:53 18.56432 -68.36905 51 ft 0 kts 86°